Regional Weather Roundup
Issued by NWS

Home | Current Version | Previous Version | Graphics & Text | Print | Product List | Glossary On
Versions: 1 2 3 4 5 6 7 8 9 10 11 12 13 14 15 16 17 18 19 20 21 22 23 24 25 26 27 28 29 30 31 32 33 34 35 36 37 38 39 40 41 42 43 44 45 46 47 48 49 50
000
ASUS43 KDMX 230007
RWRIA

WEATHER ROUNDUP FOR IOWA
NATIONAL WEATHER SERVICE DES MOINES IA
700 PM CDT TUE JUL 22 2014

NOTE: "FAIR" INDICATES FEW OR NO CLOUDS BELOW 12,000 FEET WITH NO
SIGNIFICANT WEATHER AND/OR OBSTRUCTIONS TO VISIBILITY.

* - THESE STATIONS ARE NOT NWS STATIONS...THUS NOT UNDER NWS
QUALITY CONTROL.  THEY ALSO DO NOT REPORT WEATHER SUCH
AS PRECIPITATION OR FOG.

IAZ001>003-012>014-020>022-031>034-043>046-230100-
   NORTHWEST IOWA

CITY           SKY/WX    TMP DP  RH WIND       PRES   REMARKS
CARROLL *      SUNNY     79  68  69 N9        30.10R HX  81
CHEROKEE *     MOSUNNY   81  63  53 N12       30.13R HX  82
DENISON *      SUNNY     81  68  65 N12G17    30.10R HX  83
LE MARS *      SUNNY     81  63  54 N7G14     30.15R HX  82
ORANGE CITY *  SUNNY     82  57  42 N8        30.15S HX  82
SHELDON *      SUNNY     79  61  53 N9G16     30.14S HX  80
SIOUX CITY     SUNNY     84  67  56 N12       30.13R HX  86
6HR MIN TEMP:  81; 6HR MAX TEMP:  87; 6HR PCP: TRACE;

SPENCER        MOSUNNY   79  61  53 N13       30.14R HX  80
6HR MIN TEMP:  79; 6HR MAX TEMP:  84;

STORM LAKE *   SUNNY     81  66  61 N12       30.14S HX  83
$$

IAZ055>058-069>071-079>083-090>094-230100-
   SOUTHWEST IOWA

CITY           SKY/WX    TMP DP  RH WIND       PRES   REMARKS
ATLANTIC *     SUNNY     82  72  69 N9        30.07S HX  87
AUDUBON *      SUNNY     82  73  74 N5        30.10F HX  88
CLARINDA *     SUNNY     86  77  74 N10G16    30.06S HX  97
COUNCIL BLFS * SUNNY     82  73  74 N8G14     30.09R HX  88
CRESTON *      SUNNY     84  73  70 N9G15     30.06F HX  91
HARLAN  *      SUNNY     81  72  74 N12       30.13R HX  84
LAMONI         MOSUNNY   88  77  69 N15       30.04R HX 100
6HR MIN TEMP:  87; 6HR MAX TEMP:  93;

RED OAK *      SUNNY     86  75  70 N9        30.07S HX  95
SHENANDOAH *   SUNNY     86  75  70 NE10      30.06R HX  95
$$

IAZ047>049-059>061-072>074-084-230100-
   CENTRAL IOWA

CITY           SKY/WX    TMP DP  RH WIND       PRES   REMARKS
AMES           MOSUNNY   82  69  64 N14G24    30.05S HX  85
6HR MIN TEMP:  82; 6HR MAX TEMP:  88;

ANKENY *       SUNNY     84  70  61 N12       30.04S HX  88
CHARITON *     SUNNY     86  79  79 N10       30.03S HX  99
DES MOINES     PTSUNNY   85  70  60 N10       30.03S HX  89
6HR MIN TEMP:  85; 6HR MAX TEMP:  92; 6HR PCP: TRACE;

GRINNELL*      PTSUNNY   82  72  69 NW10      30.03F HX  87
KNOXVILLE *    SUNNY     86  73  66 N9G16     30.01S HX  93
MARSHALLTOWN   MOSUNNY   84  69  60 N10       30.03S HX  88
6HR MIN TEMP:  84; 6HR MAX TEMP:  91;

PELLA *        PTSUNNY   86  73  65 N9        30.03S HX  92
PERRY *          N/A     82  72  69 N9        30.07R HX  87
$$

IAZ004>006-015-016-023>025-035-036-230100-
   NORTH CENTRAL IOWA

CITY           SKY/WX    TMP DP  RH WIND       PRES   REMARKS
ALGONA *       SUNNY     81  64  57 N12G20    30.11R HX  82
CLARION *      SUNNY     81  66  61 N13       30.09R HX  83
ESTHERVILLE    SUNNY     80  59  48 N13       30.13R HX  81
6HR MIN TEMP:  78; 6HR MAX TEMP:  82;

FORT DODGE *   MOSUNNY   81  66  61 N8        30.10R HX  83
MASON CITY     MOSUNNY   81  65  58 N17       30.09S HX  83
6HR MIN TEMP:  80; 6HR MAX TEMP:  87;

IOWA FALLS *     N/A     82  68  61 N15       30.08S HX  85
$$

IAZ007>011-017>019-026>030-037>042-050>054-066-230100-
   NORTHEAST IOWA

CITY           SKY/WX    TMP DP  RH WIND       PRES   REMARKS
CEDAR RAPIDS   MOSUNNY   86  72  62 NW15      29.99R HX  92
6HR MIN TEMP:  84; 6HR MAX TEMP:  89;

CHARLES CITY * SUNNY     81  66  61 NW14      30.07R HX  83
DECORAH *      SUNNY     82  68  61 NW13G18   30.04R HX  85
DUBUQUE        PTSUNNY   85  73  67 NW9       29.99R HX  91
6HR MIN TEMP:  83; 6HR MAX TEMP:  89;

MONTICELLO *   MOSUNNY   86  73  66 NW10      29.98R HX  93
OELWEIN *      SUNNY     84  70  61 N10G17    30.04R HX  88
WATERLOO       MOSUNNY   84  68  58 NW15      30.02R HX  87
6HR MIN TEMP:  84; 6HR MAX TEMP:  93;

$$

IAZ064-065-067-068-078-230100-
   EAST CENTRAL IOWA

CITY           SKY/WX    TMP DP  RH WIND       PRES   REMARKS
DAVENPORT      PTSUNNY   86  78  77 W8        29.98R HAZE    HX  98
6HR MIN TEMP:  85; 6HR MAX TEMP:  88;

IOWA CITY      MOSUNNY   87  78  74 NW9       29.99R HX 100
6HR MIN TEMP:  84; 6HR MAX TEMP:  90; 6HR PCP:  0.03;

MT. PLEASANT * CLOUDY    85  76  76 CALM      30.00S HX  94
MUSCATINE *    SUNNY     88  79  74 W7        29.97F HX 102
QUAD CITIES    CLOUDY    85  77  77 SW7       29.97R HX  95
6HR MIN TEMP:  84; 6HR MAX TEMP:  90;

$$

IAZ062-063-075>077-085>089-095>099-230100-
   SOUTHEAST IOWA

CITY           SKY/WX    TMP DP  RH WIND       PRES   REMARKS
BURLINGTON     CLOUDY    82  77  84 S6        30.00R HX  90
6HR MIN TEMP:  81; 6HR MAX TEMP:  89;

FAIRFIELD *    SUNNY     86  79  79 CALM      30.00R HX  99
FORT MADISON * CLOUDY    84  81  89 SE5       30.01R HX  98
KEOKUK *       MOSUNNY   82  77  83 SE9       29.99R HX  91
OSKALOOSA *      N/A     87  79  76 N16       30.02R HX 101
CENTERVILLE *  MOSUNNY   88  82  84 N6        30.04R HX 108
OTTUMWA        MOSUNNY   87  78  74 NW9       30.01R HX 100
6HR MIN TEMP:  82; 6HR MAX TEMP:  90;

WASHINGTON *   MOSUNNY   86  79  79 W6        29.99S HX  99
$$

ABBREVIATIONS USED IN REMARKS
   TC - TEMPERATURES IN CELSIUS
  WCI - WIND CHILL INDEX
   HX - HEAT INDEX
  VSB - VISIBILITY
$$



USA.gov is the U.S. government's official web portal to all federal, state and local government web resources and services.